STARLINK-2083 (47676 NORAD) Tracking and Keplerian Element Data

This shows tracking and keplerian element data for the satellite.

Feedback or suggestion? Click here.




ElementValue
Catalog47676
NameSTARLINK-2083
Epoch Orbit1007
Epoch Day106.16668981
Epoch Year2021
RAAN167.8173
Inclination53.0457
Eccentricity0.0001918
Argument of Perigee31.2065
Mean Anonmoly2.5803
Mean Motion15.73205016
Decay Rate0.00045674
L11 47676U 21012BJ 21106.16668981 .00045674 00000-0 32794-3 0 9995
L22 47676 53.0457 167.8173 0001918 31.2065 2.5803 15.73205016 10071

Live tracking and technical data element details for STARLINK-2083 (NORAD 47676). STARLINK-2083 can be tracked NOW for your location showing map with azimuth and elevation plus other details from your city location.

Track the satellite on the map from your city or location and see movement details for azimuth, elevation, latitude, longitude, range, height, and movement on the map or in text.







IsCatalogInMostPopularTable: catalog: 47676, numindb: 24
Update: records affected: 1



GetName: 47676 STARLINK-2083

Hit Count: updated at: Fri, 16 Apr 2021 10:36:58 GMT